This is the latest recevied weather packets stored in our database for station/object lu6fg. If no packets are shown the sender has not sent any weather packets the latest 10 day(s).
| Time | Temp. | Humidity | Pressure | Rain* | Wind** | Luminosity | Snow |
|---|---|---|---|---|---|---|---|
| 1778285892 | 7.22° C | 57% | 1010.3 hPa | 0 mm | - | - | - |
| 1778285712 | 7.22° C | 57% | 1010.3 hPa | 0 mm | - | - | - |
| 1778285592 | 7.22° C | 56% | 1010.1 hPa | 0 mm | - | - | - |
| 1778285532 | 7.22° C | 56% | 1010.2 hPa | 0 mm | - | - | - |
| 1778285412 | 7.22° C | 56% | 1010.1 hPa | 0 mm | - | - | - |
| 1778284752 | 7.78° C | 53% | 1009.9 hPa | 0 mm | - | - | - |
| 1778284452 | 7.78° C | 52% | 1009.6 hPa | 0 mm | - | - | - |
| 1778284032 | 7.78° C | 53% | 1009.9 hPa | 0 mm | - | - | - |
| 1778283492 | 8.33° C | 51% | 1009.7 hPa | 0 mm | - | - | - |
| 1778283192 | 8.89° C | 48% | 1009.7 hPa | 0 mm | - | - | - |
| 1778283132 | 8.89° C | 48% | 1009.9 hPa | 0 mm | - | - | - |
| 1778282652 | 9.44° C | 44% | 1009.7 hPa | 0 mm | - | - | - |
| 1778282434 | 9.44° C | 44% | 1009.7 hPa | 0 mm | - | - | - |
| 1778282352 | 9.44° C | 43% | 1009.7 hPa | 0 mm | - | - | - |
| 1778281992 | 9.44° C | 43% | 1009.6 hPa | 0 mm | - | - | - |
| 1778281752 | 9.44° C | 42% | 1009.5 hPa | 0 mm | - | - | - |
| 1778281572 | 9.44° C | 42% | 1009.4 hPa | 0 mm | - | - | - |
| 1778281213 | 10° C | 42% | 1009.6 hPa | 0 mm | - | - | - |
| 1778280912 | 10° C | 41% | 1009.5 hPa | 0 mm | - | - | - |
| 1778280552 | 10° C | 41% | 1009.5 hPa | 0 mm | - | - | - |
| 1778280492 | 10° C | 41% | 1009.5 hPa | 0 mm | - | - | - |
| 1778280214 | 10° C | 41% | 1009.4 hPa | 0 mm | - | - | - |
| 1778279952 | 10° C | 40% | 1009.6 hPa | 0 mm | - | - | - |
| 1778279913 | 10° C | 40% | 1009.4 hPa | 0 mm | - | - | - |
| 1778279232 | 10.56° C | 39% | 1009.1 hPa | 0 mm | - | - | - |
* Rain latest hour (hover to see other rain measurements)
** Current wind speed in m/s (hover to see current wind gust speed)